COSMOS 886 DEB, 9722

Orbit data source: Space-Track

COSMOS 886 DEB, 9722 is space debris in LEO originally from a launch on Mon, 27 Dec 1976 UTC launched from the Tyuratam Missile And Space Complex (TTMTR). Debris objects in space refer to the collection of defunct objects orbiting the Earth. Examples of debris include non-operational satellites, rocket bodies, and fragments generated from explosions, collisions, or faulty payload assembly.

Loading next visibility...
Identifier
9722, 1976-126T
Orbit
LEO
Country
Flag of CISCIS
Related business
Manufacturer
Unknown
Mission
Spacecraft
Bus & Motor
Unknown
Mass
Unknown
Launch date (UTC)
1976-12-27 (49 years ago)
Launch vehicle
Unknown
Launch site
Tyuratam Missile And Space Complex (TTMTR)
Object type
Payload
Rocket body
Debris
Shape & HBR
Unknown shape, 0.1 m
Radar Cross Section
Medium (>0.1 m² and <1 m²)

Expand to show TLE details & history
Last TLE update: 21 hours ago

TLE from 21 hours ago
0 COSMOS 886 DEB
1 09722U 76126T   26174.91915980 -.00000672  00000-0 -11818-2 0  9992
2 09722  65.7563 356.8982 0783109  38.5231 326.9076 12.55284719237824
Epoch: 2026-06-23T22:03Z
TLE epoch observation values (Epoch: 2026-06-23T22:03:35.406Z)
Latitude
-0°
Longitude
113.91685°
Altitude
946.994 km
Speed
7.609 km/s
True Right ascension
23h 47m 35s
True Declination
0° 00' 00"
Sunlit
Object was in daylight at epoch
Visualization orbit readout
Latitude
Unknown
Longitude
Unknown
Altitude
Unknown
Speed
Unknown
Apparent Right ascension
Unknown
Apparent Declination
Unknown
Sunlit
N/A
Visualization observer readout
Local Sidereal Time
06:14:57
Azimuth
Unknown
Elevation
Unknown
Doppler factor
Unknown
Orbital elements
Apogee altitude
2,053.398 km
Perigee altitude
828.74 km
Semi-major axis
7,819.206 km
Eccentricity
0.07831
Inclination
65.7563°
RAAN
356.8982°
Arg. of periapsis
38.5231°
True anomaly
321.57979°
Mean anomaly
326.9076°
Eccentric anomaly
324.28859°
Mean motion
3.13906 °/min
Orbital period
114.68 mins
BSTAR
-0.0011818
Loading maneuver chart data...
Computing Atmospheric mass density...

Documentation

Showing up to 5 results
|